| time (UTC) | temp F | wind direction | speed MPH | gust MPH | rain 1hr in | rain 24hr in | rain mn in | humidity % | barometer mb |
| 20260904005344 | 52 | 150 | 0.0 | 3.0 | 0.00 | 0.09 | 0.01 | 65 | 1012.8 |
| 20260904005002 | 52 | 150 | 0.0 | 3.0 | 0.00 | 0.09 | 0.01 | 65 | 1011.6 |
| 20260904004837 | 52 | 244 | 0.0 | 3.0 | 0.00 | 0.09 | 0.01 | 65 | 1012.8 |
| 20260904004506 | 52 | 244 | 0.0 | 4.0 | 0.00 | 0.09 | 0.01 | 63 | 1011.6 |
| 20260904004331 | 52 | 244 | 1.0 | 4.0 | 0.00 | 0.09 | 0.01 | 63 | 1012.7 |
| 20260904004003 | 52 | 244 | 1.0 | 4.0 | 0.00 | 0.09 | 0.01 | 61 | 1011.5 |
| 20260904003825 | 52 | 251 | 0.0 | 4.0 | 0.00 | 0.09 | 0.01 | 63 | 1012.7 |
| 20260904003501 | 52 | 142 | 0.0 | 3.0 | 0.00 | 0.09 | 0.01 | 61 | 1011.5 |
| 20260904003319 | 53 | 142 | 1.0 | 3.0 | 0.00 | 0.09 | 0.01 | 61 | 1012.8 |
| 20260904003004 | 52 | 140 | 0.0 | 4.0 | 0.00 | 0.09 | 0.01 | 62 | 1011.5 |
| 20260904002813 | 53 | 257 | 1.0 | 4.0 | 0.00 | 0.09 | 0.01 | 61 | 1012.8 |
| 20260904002505 | 52 | 265 | 1.0 | 6.0 | 0.00 | 0.09 | 0.01 | 60 | 1011.4 |
| 20260904002307 | 53 | 134 | 2.0 | 7.0 | 0.00 | 0.09 | 0.01 | 64 | 1012.7 |
| 20260904002003 | 52 | 119 | 0.0 | 7.0 | 0.00 | 0.09 | 0.01 | 67 | 1011.5 |
| 20260904001801 | 53 | 105 | 2.0 | 7.0 | 0.00 | 0.09 | 0.01 | 66 | 1012.7 |
| 20260904001502 | 52 | 105 | 2.0 | 7.0 | 0.00 | 0.09 | 0.01 | 65 | 1011.4 |
| 20260904001255 | 52 | 109 | 2.0 | 6.0 | 0.00 | 0.09 | 0.01 | 66 | 1012.7 |
| 20260904001004 | 52 | 107 | 2.0 | 8.0 | 0.00 | 0.09 | 0.01 | 64 | 1011.5 |
| 20260904000749 | 52 | 93 | 3.0 | 8.0 | 0.00 | 0.09 | 0.01 | 66 | 1012.7 |
| 20260904000507 | 52 | 108 | 1.0 | 8.0 | 0.00 | 0.09 | 0.01 | 65 | 1011.4 |
| 20260904000243 | 52 | 115 | 2.0 | 8.0 | 0.00 | 0.09 | 0.01 | 66 | 1012.7 |
| 20260904000007 | 52 | 119 | 3.0 | 8.0 | 0.00 | 0.09 | 0.01 | 67 | 1011.5 |
| 20260903235737 | 52 | 104 | 1.0 | 6.0 | 0.00 | 0.09 | 0.01 | 67 | 1012.7 |
| 20260903235502 | 52 | 115 | 1.0 | 6.0 | 0.00 | 0.09 | 0.01 | 68 | 1011.4 |
| 20260903235231 | 52 | 109 | 1.0 | 6.0 | 0.00 | 0.09 | 0.01 | 69 | 1012.7 |
| 20260903235003 | 52 | 119 | 2.0 | 6.0 | 0.00 | 0.09 | 0.01 | 67 | 1011.5 |
| 20260903234951 | 52 | 123 | 1.0 | 6.0 | 0.00 | 0.09 | 0.01 | 68 | 1012.8 |
| 20260903234511 | 52 | 130 | 0.0 | 6.0 | 0.00 | 0.09 | 0.01 | 67 | 1011.5 |
| 20260903234219 | 52 | 126 | 2.0 | 6.0 | 0.00 | 0.09 | 0.01 | 68 | 1012.8 |
| 20260903234008 | 52 | 104 | 1.0 | 6.0 | 0.00 | 0.09 | 0.01 | 68 | 1011.6 |
| 20260903233713 | 52 | 110 | 3.0 | 6.0 | 0.00 | 0.09 | 0.01 | 70 | 1012.9 |
| 20260903233503 | 52 | 115 | 2.0 | 6.0 | 0.00 | 0.09 | 0.01 | 68 | 1011.6 |
| 20260903233207 | 52 | 114 | 3.0 | 6.0 | 0.00 | 0.09 | 0.01 | 68 | 1013.1 |
| 20260903233006 | 52 | 106 | 3.0 | 6.0 | 0.00 | 0.09 | 0.01 | 69 | 1011.7 |
| 20260903232701 | 52 | 118 | 3.0 | 4.0 | 0.00 | 0.09 | 0.01 | 67 | 1013.1 |
| 20260903232506 | 52 | 119 | 2.0 | 6.0 | 0.00 | 0.09 | 0.01 | 68 | 1011.7 |
| 20260903232156 | 53 | 118 | 3.0 | 6.0 | 0.00 | 0.09 | 0.01 | 66 | 1013.1 |
| 20260903232003 | 52 | 108 | 2.0 | 7.0 | 0.00 | 0.09 | 0.01 | 65 | 1011.7 |
| 20260903231649 | 53 | 116 | 4.0 | 10.0 | 0.00 | 0.09 | 0.01 | 64 | 1013.1 |
| 20260903231503 | 52 | 116 | 2.0 | 10.0 | 0.00 | 0.09 | 0.01 | 64 | 1011.8 |
| 20260903231143 | 53 | 107 | 3.0 | 10.0 | 0.00 | 0.09 | 0.01 | 64 | 1012.9 |
| 20260903231002 | 53 | 109 | 5.0 | 10.0 | 0.00 | 0.09 | 0.01 | 64 | 1011.7 |
| 20260903230637 | 53 | 123 | 2.0 | 7.0 | 0.00 | 0.09 | 0.01 | 65 | 1012.9 |
| 20260903230505 | 53 | 173 | 1.0 | 8.0 | 0.00 | 0.09 | 0.01 | 63 | 1011.8 |
| 20260903230131 | 54 | 114 | 2.0 | 8.0 | 0.00 | 0.09 | 0.01 | 65 | 1012.9 |
| 20260903230009 | 53 | 132 | 1.0 | 8.0 | 0.00 | 0.09 | 0.01 | 62 | 1011.8 |
| 20260903225625 | 54 | 246 | 2.0 | 8.0 | 0.00 | 0.09 | 0.01 | 62 | 1013.1 |
| 20260903225504 | 53 | 240 | 2.0 | 8.0 | 0.00 | 0.09 | 0.01 | 62 | 1011.8 |
| 20260903225119 | 54 | 112 | 4.0 | 12.0 | 0.00 | 0.09 | 0.01 | 62 | 1013.1 |
| 20260903225004 | 53 | 153 | 1.0 | 12.0 | 0.00 | 0.09 | 0.01 | 61 | 1011.7 |
| 20260903224613 | 53 | 107 | 5.0 | 12.0 | 0.00 | 0.09 | 0.01 | 62 | 1013.2 |
| 20260903224509 | 53 | 112 | 6.0 | 12.0 | 0.00 | 0.09 | 0.01 | 61 | 1011.9 |
| 20260903224107 | 53 | 188 | 3.0 | 11.0 | 0.00 | 0.09 | 0.01 | 61 | 1013.4 |
| 20260903224005 | 53 | 169 | 1.0 | 11.0 | 0.00 | 0.09 | 0.01 | 61 | 1011.9 |
| 20260903223601 | 53 | 108 | 3.0 | 11.0 | 0.00 | 0.09 | 0.01 | 61 | 1013.2 |
| 20260903223504 | 53 | 106 | 2.0 | 10.0 | 0.00 | 0.09 | 0.01 | 60 | 1011.9 |
| 20260903223023 | 53 | 126 | 3.0 | 10.0 | 0.00 | 0.09 | 0.01 | 60 | 1011.8 |
| 20260903222810 | 53 | 111 | 3.0 | 9.0 | 0.00 | 0.09 | 0.01 | 65 | 1013.3 |
| 20260903222505 | 53 | 107 | 2.0 | 9.0 | 0.00 | 0.09 | 0.01 | 64 | 1011.7 |
| 20260903222043 | 53 | 144 | 4.0 | 9.0 | 0.00 | 0.09 | 0.01 | 62 | 1013.3 |
| 20260903222004 | 53 | 5 | 3.0 | 9.0 | 0.00 | 0.09 | 0.01 | 62 | 1011.9 |
| 20260903221759 | 53 | 109 | 4.0 | 10.0 | 0.00 | 0.09 | 0.01 | 67 | 1013.3 |
| 20260903221514 | 52 | 90 | 3.0 | 10.0 | 0.00 | 0.09 | 0.01 | 67 | 1011.8 |
| 20260903221031 | 53 | 103 | 4.0 | 10.0 | 0.00 | 0.09 | 0.01 | 69 | 1013.2 |
| 20260903221011 | 52 | 107 | 6.0 | 10.0 | 0.00 | 0.09 | 0.01 | 69 | 1011.8 |
| 20260903220750 | 52 | 109 | 4.0 | 9.0 | 0.00 | 0.09 | 0.01 | 68 | 1013.2 |
| 20260903220503 | 52 | 115 | 3.0 | 9.0 | 0.00 | 0.09 | 0.01 | 68 | 1011.8 |
| 20260903220029 | 52 | 113 | 5.0 | 10.0 | 0.00 | 0.09 | 0.01 | 70 | 1013.1 |
| 20260903220004 | 52 | 107 | 4.0 | 10.0 | 0.00 | 0.09 | 0.01 | 69 | 1011.9 |
| 20260903215529 | 52 | 104 | 5.0 | 10.0 | 0.00 | 0.09 | 0.01 | 72 | 1013.1 |
| 20260903215504 | 51 | 104 | 4.0 | 10.0 | 0.00 | 0.09 | 0.01 | 71 | 1011.9 |
| 20260903215030 | 52 | 103 | 4.0 | 9.0 | 0.00 | 0.09 | 0.01 | 70 | 1013.1 |
| 20260903215004 | 51 | 98 | 5.0 | 9.0 | 0.00 | 0.09 | 0.01 | 70 | 1011.9 |
| 20260903214529 | 52 | 108 | 2.0 | 7.0 | 0.00 | 0.09 | 0.01 | 70 | 1013.2 |
| 20260903214508 | 52 | 114 | 2.0 | 6.0 | 0.00 | 0.09 | 0.01 | 69 | 1012.0 |
| 20260903214003 | 52 | 115 | 1.0 | 3.0 | 0.00 | 0.09 | 0.01 | 69 | 1012.1 |
| 20260903213527 | 52 | 119 | 3.0 | 9.0 | 0.00 | 0.09 | 0.01 | 68 | 1013.3 |
| 20260903213504 | 52 | 119 | 1.0 | 9.0 | 0.00 | 0.09 | 0.01 | 67 | 1012.0 |
| 20260903213025 | 53 | 105 | 4.0 | 10.0 | 0.00 | 0.09 | 0.01 | 67 | 1013.3 |
| 20260903213008 | 52 | 103 | 4.0 | 10.0 | 0.00 | 0.09 | 0.01 | 67 | 1012.0 |
| 20260903212525 | 53 | 119 | 4.0 | 12.0 | 0.00 | 0.09 | 0.01 | 66 | 1013.3 |
| 20260903212504 | 53 | 110 | 3.0 | 12.0 | 0.00 | 0.09 | 0.01 | 66 | 1012.1 |
| 20260903212025 | 54 | 109 | 5.0 | 12.0 | 0.00 | 0.09 | 0.01 | 65 | 1013.4 |
| 20260903212006 | 54 | 102 | 3.0 | 12.0 | 0.00 | 0.09 | 0.01 | 65 | 1012.1 |
| 20260903211523 | 55 | 107 | 5.0 | 11.0 | 0.00 | 0.09 | 0.01 | 64 | 1013.4 |
| 20260903211518 | 55 | 114 | 4.0 | 11.0 | 0.00 | 0.09 | 0.01 | 64 | 1012.0 |
| 20260903211022 | 56 | 96 | 5.0 | 11.0 | 0.00 | 0.09 | 0.01 | 63 | 1013.2 |
| 20260903211007 | 55 | 101 | 4.0 | 11.0 | 0.00 | 0.09 | 0.01 | 63 | 1011.9 |
| 20260903210523 | 55 | 99 | 5.0 | 12.0 | 0.00 | 0.09 | 0.01 | 66 | 1013.1 |
| 20260903210510 | 55 | 103 | 3.0 | 12.0 | 0.00 | 0.09 | 0.01 | 63 | 1011.9 |
| 20260903210024 | 55 | 107 | 6.0 | 12.0 | 0.00 | 0.09 | 0.01 | 64 | 1012.0 |
| 20260903210022 | 55 | 111 | 4.0 | 12.0 | 0.00 | 0.09 | 0.01 | 64 | 1013.1 |
| 20260903205523 | 55 | 126 | 6.0 | 12.0 | 0.00 | 0.09 | 0.01 | 62 | 1013.1 |
| 20260903205503 | 55 | 129 | 1.0 | 12.0 | 0.00 | 0.09 | 0.01 | 61 | 1011.9 |
| 20260903205239 | 55 | 122 | 6.0 | 12.0 | 0.00 | 0.09 | 0.01 | 64 | 1013.1 |
| 20260903205007 | 55 | 117 | 7.0 | 12.0 | 0.00 | 0.09 | 0.01 | 63 | 1011.9 |
| 20260903204523 | 54 | 125 | 5.0 | 11.0 | 0.00 | 0.09 | 0.01 | 65 | 1011.8 |
| 20260903204251 | 55 | 107 | 4.0 | 11.0 | 0.00 | 0.09 | 0.01 | 64 | 1013.1 |
| 20260903204004 | 54 | 92 | 4.0 | 11.0 | 0.00 | 0.09 | 0.01 | 63 | 1011.9 |
| 20260903203523 | 55 | 108 | 4.0 | 11.0 | 0.00 | 0.09 | 0.01 | 65 | 1013.1 |
| 20260903203504 | 55 | 134 | 3.0 | 11.0 | 0.00 | 0.09 | 0.01 | 65 | 1011.9 |
| 20260903203023 | 55 | 103 | 4.0 | 11.0 | 0.00 | 0.09 | 0.01 | 69 | 1013.1 |
| 20260903202522 | 54 | 118 | 4.0 | 11.0 | 0.00 | 0.09 | 0.01 | 67 | 1013.1 |
| 20260903202504 | 54 | 109 | 3.0 | 11.0 | 0.00 | 0.09 | 0.01 | 67 | 1011.9 |
| 20260903202023 | 55 | 115 | 4.0 | 11.0 | 0.00 | 0.09 | 0.01 | 67 | 1013.1 |
| 20260903202004 | 54 | 83 | 3.0 | 11.0 | 0.00 | 0.09 | 0.01 | 66 | 1011.9 |
| 20260903201523 | 55 | 118 | 4.0 | 10.0 | 0.00 | 0.09 | 0.01 | 66 | 1013.1 |
| 20260903201511 | 54 | 118 | 3.0 | 10.0 | 0.00 | 0.09 | 0.01 | 66 | 1011.9 |
| 20260903201021 | 55 | 145 | 5.0 | 16.0 | 0.00 | 0.09 | 0.01 | 66 | 1013.1 |
| 20260903201005 | 54 | 99 | 3.0 | 16.0 | 0.00 | 0.09 | 0.01 | 66 | 1011.9 |
| 20260903200521 | 54 | 115 | 7.0 | 16.0 | 0.00 | 0.09 | 0.01 | 72 | 1013.1 |
| 20260903200509 | 54 | 113 | 4.0 | 16.0 | 0.00 | 0.09 | 0.01 | 71 | 1011.8 |
| 20260903200244 | 54 | 104 | 6.0 | 12.0 | 0.00 | 0.09 | 0.01 | 73 | 1012.9 |
| 20260903200008 | 54 | 103 | 8.0 | 12.0 | 0.00 | 0.09 | 0.01 | 71 | 1011.9 |
| 20260903195746 | 54 | 113 | 5.0 | 12.0 | 0.00 | 0.09 | 0.01 | 69 | 1013.1 |
| 20260903195508 | 53 | 122 | 5.0 | 12.0 | 0.00 | 0.09 | 0.01 | 70 | 1011.9 |
| 20260903195020 | 54 | 123 | 6.0 | 14.0 | 0.00 | 0.09 | 0.01 | 74 | 1013.1 |
| 20260903195011 | 53 | 99 | 6.0 | 14.0 | 0.00 | 0.09 | 0.01 | 74 | 1011.9 |
| 20260903194537 | 53 | 104 | 5.0 | 14.0 | 0.00 | 0.09 | 0.01 | 72 | 1011.9 |
| 20260903194517 | 53 | 107 | 7.0 | 14.0 | 0.00 | 0.09 | 0.01 | 73 | 1012.9 |
| 20260903194017 | 53 | 82 | 7.0 | 14.0 | 0.00 | 0.09 | 0.01 | 74 | 1012.9 |
| 20260903194006 | 53 | 94 | 7.0 | 14.0 | 0.00 | 0.09 | 0.01 | 74 | 1011.9 |
| 20260903193517 | 53 | 127 | 6.0 | 14.0 | 0.00 | 0.09 | 0.01 | 72 | 1012.9 |
| 20260903193510 | 52 | 158 | 5.0 | 14.0 | 0.00 | 0.09 | 0.01 | 71 | 1011.9 |
| 20260903193031 | 53 | 101 | 5.0 | 15.0 | 0.00 | 0.09 | 0.01 | 73 | 1011.7 |
| 20260903193016 | 53 | 93 | 6.0 | 15.0 | 0.00 | 0.09 | 0.01 | 74 | 1012.7 |
| 20260903192517 | 53 | 92 | 7.0 | 15.0 | 0.00 | 0.09 | 0.01 | 77 | 1012.8 |
| 20260903192504 | 53 | 107 | 4.0 | 15.0 | 0.00 | 0.09 | 0.01 | 77 | 1011.7 |
| 20260903192017 | 53 | 112 | 5.0 | 12.0 | 0.00 | 0.09 | 0.01 | 76 | 1012.8 |
| 20260903192004 | 53 | 101 | 7.0 | 12.0 | 0.00 | 0.09 | 0.01 | 75 | 1011.7 |
| 20260903191734 | 53 | 148 | 4.0 | 13.0 | 0.00 | 0.09 | 0.01 | 76 | 1012.8 |
| 20260903191509 | 52 | 103 | 2.0 | 13.0 | 0.00 | 0.09 | 0.01 | 76 | 1011.6 |
| 20260903191017 | 53 | 99 | 5.0 | 13.0 | 0.00 | 0.09 | 0.01 | 78 | 1012.7 |
| 20260903191003 | 52 | 107 | 7.0 | 13.0 | 0.00 | 0.09 | 0.01 | 78 | 1011.4 |
| 20260903190734 | 52 | 107 | 5.0 | 13.0 | 0.00 | 0.09 | 0.01 | 79 | 1012.7 |
| 20260903190504 | 51 | 107 | 6.0 | 13.0 | 0.00 | 0.09 | 0.01 | 79 | 1011.7 |
| 20260903190017 | 51 | 273 | 4.0 | 13.0 | 0.00 | 0.09 | 0.01 | 79 | 1012.7 |
| 20260903185516 | 51 | 165 | 4.0 | 13.0 | 0.00 | 0.09 | 0.01 | 80 | 1012.8 |
| 20260903185507 | 50 | 165 | 1.0 | 13.0 | 0.00 | 0.09 | 0.01 | 80 | 1011.6 |
| 20260903185017 | 50 | 109 | 6.0 | 13.0 | 0.00 | 0.09 | 0.01 | 81 | 1012.7 |
| 20260903185003 | 50 | 92 | 6.0 | 13.0 | 0.00 | 0.09 | 0.01 | 81 | 1011.6 |
| 20260903184518 | 50 | 115 | 6.0 | 15.0 | 0.00 | 0.09 | 0.01 | 82 | 1012.7 |
| 20260903184516 | 49 | 98 | 5.0 | 15.0 | 0.00 | 0.09 | 0.01 | 82 | 1011.4 |
| 20260903184238 | 49 | 111 | 7.0 | 15.0 | 0.00 | 0.09 | 0.01 | 82 | 1012.8 |
| 20260903184015 | 49 | 20 | 4.0 | 15.0 | 0.00 | 0.09 | 0.01 | 82 | 1011.4 |
| 20260903183518 | 49 | 74 | 8.0 | 14.0 | 0.00 | 0.09 | 0.01 | 84 | 1012.7 |
| 20260903183511 | 48 | 73 | 6.0 | 17.0 | 0.00 | 0.09 | 0.01 | 83 | 1011.4 |
| 20260903183241 | 48 | 122 | 7.0 | 17.0 | 0.00 | 0.09 | 0.01 | 87 | 1012.6 |
| 20260903183014 | 47 | 119 | 6.0 | 17.0 | 0.00 | 0.09 | 0.01 | 87 | 1011.4 |
| 20260903182517 | 47 | 116 | 6.0 | 17.0 | 0.00 | 0.09 | 0.01 | 90 | 1012.6 |
| 20260903182512 | 46 | 90 | 9.0 | 17.0 | 0.00 | 0.09 | 0.01 | 89 | 1011.4 |
| 20260903182015 | 46 | 107 | 6.0 | 11.0 | 0.00 | 0.09 | 0.01 | 88 | 1012.7 |
| 20260903181532 | 46 | 110 | 6.0 | 10.0 | 0.00 | 0.09 | 0.01 | 88 | 1011.5 |
| 20260903181510 | 46 | 109 | 5.0 | 10.0 | 0.00 | 0.09 | 0.01 | 88 | 1012.6 |
| 20260903181226 | 46 | 109 | 5.0 | 10.0 | 0.00 | 0.09 | 0.01 | 89 | 1012.6 |
| 20260903181010 | 46 | 109 | 5.0 | 10.0 | 0.00 | 0.09 | 0.01 | 88 | 1011.5 |
| 20260903180511 | 46 | 114 | 5.0 | 9.0 | 0.00 | 0.09 | 0.01 | 89 | 1011.4 |
| 20260903180459 | 46 | 114 | 4.0 | 9.0 | 0.00 | 0.09 | 0.01 | 89 | 1012.6 |
| 20260903180014 | 46 | 109 | 3.0 | 8.0 | 0.00 | 0.09 | 0.01 | 87 | 1011.1 |
| 20260903175959 | 47 | 109 | 3.0 | 7.0 | 0.00 | 0.09 | 0.01 | 88 | 1012.6 |
| 20260903175508 | 46 | 97 | 2.0 | 9.0 | 0.00 | 0.09 | 0.01 | 88 | 1011.2 |
| 20260903175458 | 47 | 97 | 3.0 | 8.0 | 0.00 | 0.09 | 0.01 | 88 | 1012.6 |
| 20260903175007 | 46 | 123 | 2.0 | 9.0 | 0.00 | 0.09 | 0.01 | 88 | 1011.0 |
| 20260903174959 | 47 | 148 | 4.0 | 9.0 | 0.00 | 0.09 | 0.01 | 88 | 1012.6 |
| 20260903174519 | 46 | 107 | 5.0 | 9.0 | 0.00 | 0.09 | 0.01 | 87 | 1010.9 |
| 20260903174458 | 47 | 107 | 5.0 | 9.0 | 0.00 | 0.09 | 0.01 | 88 | 1012.4 |
| 20260903174219 | 47 | 103 | 3.0 | 9.0 | 0.00 | 0.09 | 0.01 | 88 | 1012.4 |
| 20260903174010 | 46 | 109 | 4.0 | 9.0 | 0.00 | 0.09 | 0.01 | 87 | 1010.9 |
| 20260903173507 | 46 | 107 | 2.0 | 8.0 | 0.00 | 0.09 | 0.01 | 89 | 1010.9 |
| 20260903173459 | 47 | 107 | 3.0 | 8.0 | 0.00 | 0.09 | 0.01 | 89 | 1012.4 |
| 20260903173026 | 46 | 117 | 3.0 | 11.0 | 0.00 | 0.09 | 0.01 | 89 | 1010.8 |
| 20260903172959 | 47 | 117 | 5.0 | 11.0 | 0.00 | 0.09 | 0.01 | 89 | 1012.3 |
| 20260903172512 | 46 | 106 | 5.0 | 11.0 | 0.00 | 0.09 | 0.01 | 89 | 1010.8 |
| 20260903172459 | 46 | 113 | 5.0 | 11.0 | 0.00 | 0.09 | 0.01 | 90 | 1012.3 |
| 20260903172010 | 46 | 116 | 3.0 | 9.0 | 0.00 | 0.09 | 0.01 | 90 | 1010.6 |
| 20260903171959 | 46 | 99 | 4.0 | 9.0 | 0.00 | 0.09 | 0.01 | 90 | 1012.1 |
| 20260903171525 | 46 | 118 | 3.0 | 9.0 | 0.00 | 0.09 | 0.01 | 90 | 1010.7 |
| 20260903171458 | 46 | 109 | 5.0 | 9.0 | 0.00 | 0.09 | 0.01 | 91 | 1012.1 |
| 20260903171016 | 46 | 121 | 5.0 | 9.0 | 0.00 | 0.09 | 0.01 | 92 | 1010.7 |
| 20260903170959 | 46 | 123 | 5.0 | 9.0 | 0.00 | 0.09 | 0.01 | 92 | 1012.0 |
| 20260903170515 | 45 | 117 | 3.0 | 11.0 | 0.00 | 0.09 | 0.01 | 92 | 1010.6 |
| 20260903170458 | 46 | 117 | 5.0 | 11.0 | 0.00 | 0.09 | 0.01 | 92 | 1012.0 |
| 20260903170018 | 45 | 113 | 5.0 | 11.0 | 0.00 | 0.09 | 0.01 | 91 | 1010.4 |
| 20260903165959 | 46 | 115 | 6.0 | 11.0 | 0.00 | 0.09 | 0.01 | 92 | 1011.9 |
| 20260903165513 | 45 | 128 | 7.0 | 11.0 | 0.00 | 0.09 | 0.01 | 92 | 1010.3 |
| 20260903165217 | 45 | 111 | 4.0 | 9.0 | 0.00 | 0.09 | 0.01 | 92 | 1011.8 |
| 20260903165015 | 45 | 134 | 5.0 | 9.0 | 0.00 | 0.09 | 0.01 | 92 | 1010.4 |
| 20260903164535 | 45 | 124 | 3.0 | 9.0 | 0.00 | 0.09 | 0.01 | 92 | 1010.3 |
| 20260903164452 | 45 | 111 | 3.0 | 8.0 | 0.00 | 0.09 | 0.01 | 92 | 1011.8 |
| 20260903164008 | 45 | 113 | 3.0 | 9.0 | 0.00 | 0.09 | 0.01 | 93 | 1010.3 |
| 20260903163946 | 45 | 113 | 4.0 | 9.0 | 0.00 | 0.09 | 0.01 | 93 | 1011.7 |
| 20260903163509 | 45 | 112 | 5.0 | 9.0 | 0.00 | 0.09 | 0.01 | 93 | 1010.1 |
| 20260903163440 | 45 | 108 | 4.0 | 9.0 | 0.00 | 0.09 | 0.01 | 93 | 1011.7 |
| 20260903163018 | 45 | 128 | 2.0 | 8.0 | 0.00 | 0.09 | 0.01 | 93 | 1010.3 |
| 20260903162934 | 45 | 111 | 1.0 | 8.0 | 0.00 | 0.09 | 0.01 | 93 | 1011.7 |
| 20260903162512 | 44 | 193 | 1.0 | 4.0 | 0.00 | 0.09 | 0.01 | 92 | 1010.2 |
| 20260903162428 | 45 | 193 | 1.0 | 4.0 | 0.00 | 0.09 | 0.01 | 93 | 1011.7 |
| 20260903162013 | 45 | 113 | 0.0 | 4.0 | 0.00 | 0.09 | 0.01 | 93 | 1010.1 |
| 20260903161922 | 45 | 113 | 1.0 | 4.0 | 0.00 | 0.09 | 0.01 | 93 | 1011.7 |
| 20260903161641 | 45 | 127 | 2.0 | 7.0 | 0.00 | 0.09 | 0.01 | 93 | 1011.5 |
| 20260903161531 | 45 | 131 | 0.0 | 7.0 | 0.00 | 0.09 | 0.01 | 93 | 1010.0 |
| 20260903161011 | 45 | 143 | 4.0 | 9.0 | 0.00 | 0.09 | 0.01 | 93 | 1010.0 |
| 20260903160910 | 45 | 117 | 2.0 | 9.0 | 0.00 | 0.09 | 0.01 | 94 | 1011.5 |
| 20260903160511 | 44 | 113 | 1.0 | 9.0 | 0.00 | 0.09 | 0.01 | 94 | 1009.9 |
| 20260903160404 | 45 | 140 | 3.0 | 9.0 | 0.00 | 0.09 | 0.01 | 94 | 1011.5 |
| 20260903160038 | 44 | 69 | 3.0 | 9.0 | 0.00 | 0.09 | 0.01 | 94 | 1010.0 |
| 20260903155858 | 45 | 107 | 4.0 | 9.0 | 0.00 | 0.09 | 0.01 | 94 | 1011.3 |
| 20260903155516 | 44 | 112 | 3.0 | 9.0 | 0.00 | 0.09 | 0.01 | 94 | 1009.9 |
| 20260903155352 | 45 | 93 | 3.0 | 9.0 | 0.00 | 0.09 | 0.01 | 94 | 1011.5 |
| 20260903155003 | 44 | 121 | 1.0 | 10.0 | 0.00 | 0.09 | 0.01 | 94 | 1009.9 |
| 20260903154846 | 45 | 118 | 4.0 | 10.0 | 0.00 | 0.09 | 0.01 | 94 | 1011.3 |
| 20260903154504 | 44 | 107 | 3.0 | 10.0 | 0.00 | 0.09 | 0.01 | 94 | 1009.9 |
| 20260903154340 | 45 | 116 | 4.0 | 10.0 | 0.00 | 0.09 | 0.01 | 94 | 1011.3 |
| 20260903154002 | 44 | 73 | 3.0 | 8.0 | 0.00 | 0.09 | 0.01 | 94 | 1009.8 |
| 20260903153506 | 44 | 113 | 3.0 | 8.0 | 0.00 | 0.09 | 0.01 | 94 | 1010.0 |
| 20260903153328 | 45 | 109 | 3.0 | 8.0 | 0.00 | 0.09 | 0.01 | 95 | 1011.2 |
| 20260903153015 | 44 | 118 | 3.0 | 8.0 | 0.00 | 0.09 | 0.01 | 94 | 1010.1 |
| 20260903152822 | 44 | 107 | 2.0 | 8.0 | 0.00 | 0.09 | 0.01 | 94 | 1011.2 |
| 20260903152503 | 44 | 118 | 1.0 | 6.0 | 0.00 | 0.09 | 0.01 | 94 | 1010.0 |
| 20260903152316 | 44 | 129 | 0.0 | 4.0 | 0.00 | 0.09 | 0.01 | 94 | 1011.2 |
| 20260903152005 | 44 | 146 | 1.0 | 4.0 | 0.00 | 0.09 | 0.01 | 93 | 1010.0 |
| 20260903151810 | 44 | 110 | 0.0 | 1.0 | 0.00 | 0.09 | 0.01 | 94 | 1011.1 |
| 20260903151516 | 44 | 107 | 0.0 | 3.0 | 0.00 | 0.09 | 0.01 | 93 | 1009.9 |
| 20260903151304 | 44 | 107 | 1.0 | 3.0 | 0.00 | 0.09 | 0.01 | 94 | 1011.1 |
| 20260903151018 | 44 | 107 | 1.0 | 4.0 | 0.00 | 0.09 | 0.01 | 93 | 1011.1 |
| 20260903151009 | 44 | 107 | 0.0 | 4.0 | 0.00 | 0.09 | 0.01 | 93 | 1010.0 |
| 20260903150517 | 44 | 105 | 2.0 | 6.0 | 0.00 | 0.09 | 0.01 | 93 | 1011.1 |
| 20260903150503 | 44 | 118 | 0.0 | 6.0 | 0.00 | 0.09 | 0.01 | 93 | 1009.9 |
| 20260903150011 | 44 | 110 | 1.0 | 6.0 | 0.00 | 0.09 | 0.01 | 93 | 1009.9 |
| 20260903145746 | 44 | 118 | 1.0 | 6.0 | 0.00 | 0.09 | 0.01 | 93 | 1011.1 |
| 20260903145504 | 44 | 106 | 1.0 | 4.0 | 0.00 | 0.09 | 0.01 | 93 | 1009.9 |
| 20260903145240 | 44 | 106 | 1.0 | 7.0 | 0.00 | 0.09 | 0.01 | 94 | 1011.0 |
| 20260903145004 | 44 | 108 | 0.0 | 7.0 | 0.00 | 0.09 | 0.01 | 93 | 1009.8 |
| 20260903144734 | 44 | 108 | 1.0 | 7.0 | 0.00 | 0.09 | 0.01 | 94 | 1011.0 |
| 20260903144510 | 44 | 112 | 3.0 | 7.0 | 0.00 | 0.09 | 0.01 | 94 | 1009.9 |
| 20260903144228 | 44 | 107 | 1.0 | 4.0 | 0.00 | 0.09 | 0.01 | 94 | 1011.1 |
| 20260903144004 | 44 | 117 | 1.0 | 4.0 | 0.00 | 0.09 | 0.01 | 94 | 1009.8 |
| 20260903143722 | 44 | 114 | 0.0 | 3.0 | 0.00 | 0.09 | 0.01 | 94 | 1011.0 |
| 20260903143504 | 44 | 126 | 0.0 | 2.0 | 0.00 | 0.09 | 0.01 | 93 | 1009.8 |
| 20260903143216 | 44 | 129 | 0.0 | 1.0 | 0.00 | 0.09 | 0.01 | 94 | 1010.9 |
| 20260903143007 | 44 | 113 | 0.0 | 0.0 | 0.00 | 0.09 | 0.01 | 93 | 1009.6 |
| 20260903142928 | 44 | 113 | 0.0 | 0.0 | 0.00 | 0.09 | 0.01 | 93 | 1010.9 |
| 20260903142507 | 44 | 113 | 0.0 | 1.0 | 0.00 | 0.09 | 0.01 | 93 | 1009.6 |
| 20260903142430 | 44 | 113 | 0.0 | 1.0 | 0.00 | 0.09 | 0.01 | 93 | 1010.9 |
| 20260903142008 | 44 | 113 | 0.0 | 1.0 | 0.00 | 0.09 | 0.01 | 93 | 1009.6 |
| 20260903141658 | 44 | 113 | 0.0 | 1.0 | 0.00 | 0.09 | 0.01 | 93 | 1010.8 |
| 20260903141509 | 44 | 111 | 0.0 | 0.0 | 0.00 | 0.09 | 0.01 | 93 | 1009.6 |
| 20260903141152 | 44 | 111 | 0.0 | 1.0 | 0.00 | 0.09 | 0.01 | 93 | 1010.8 |
| 20260903141004 | 44 | 111 | 0.0 | 1.0 | 0.00 | 0.09 | 0.01 | 93 | 1009.6 |
| 20260903140646 | 44 | 111 | 0.0 | 1.0 | 0.00 | 0.09 | 0.01 | 93 | 1010.8 |
| 20260903140509 | 44 | 111 | 0.0 | 1.0 | 0.00 | 0.09 | 0.01 | 93 | 1009.6 |
| 20260903140403 | 44 | 111 | 0.0 | 1.0 | 0.00 | 0.09 | 0.01 | 93 | 1010.8 |
| 20260903140030 | 44 | 111 | 0.0 | 1.0 | 0.00 | 0.09 | 0.01 | 93 | 1009.5 |
| 20260903135634 | 45 | 111 | 0.0 | 1.0 | 0.00 | 0.09 | 0.01 | 94 | 1010.7 |
| 20260903135504 | 44 | 111 | 0.0 | 1.0 | 0.00 | 0.09 | 0.01 | 93 | 1009.5 |
| 20260903135128 | 45 | 111 | 0.0 | 3.0 | 0.00 | 0.09 | 0.01 | 94 | 1010.5 |
| 20260903135007 | 44 | 111 | 0.0 | 3.0 | 0.00 | 0.09 | 0.01 | 93 | 1009.4 |
| 20260903134622 | 45 | 110 | 1.0 | 4.0 | 0.00 | 0.09 | 0.01 | 94 | 1010.5 |
| 20260903134505 | 44 | 110 | 0.0 | 4.0 | 0.00 | 0.09 | 0.01 | 94 | 1009.4 |
| 20260903134116 | 45 | 111 | 1.0 | 4.0 | 0.00 | 0.09 | 0.01 | 94 | 1010.5 |
| 20260903134003 | 44 | 111 | 1.0 | 4.0 | 0.00 | 0.09 | 0.01 | 94 | 1009.3 |
| 20260903133610 | 45 | 119 | 2.0 | 4.0 | 0.00 | 0.09 | 0.01 | 94 | 1010.4 |
| 20260903133507 | 44 | 119 | 1.0 | 4.0 | 0.00 | 0.09 | 0.01 | 94 | 1009.3 |
| 20260903133104 | 45 | 130 | 2.0 | 4.0 | 0.00 | 0.09 | 0.01 | 94 | 1010.3 |
| 20260903133015 | 44 | 109 | 1.0 | 4.0 | 0.00 | 0.09 | 0.01 | 94 | 1009.2 |
| 20260903132558 | 45 | 122 | 2.0 | 4.0 | 0.00 | 0.09 | 0.01 | 94 | 1010.2 |
| 20260903132503 | 44 | 132 | 2.0 | 4.0 | 0.00 | 0.09 | 0.01 | 94 | 1009.1 |
| 20260903132052 | 45 | 113 | 2.0 | 6.0 | 0.00 | 0.09 | 0.01 | 94 | 1010.2 |
| 20260903132002 | 44 | 116 | 0.0 | 6.0 | 0.00 | 0.09 | 0.01 | 93 | 1009.0 |
| 20260903131546 | 45 | 122 | 2.0 | 6.0 | 0.00 | 0.09 | 0.01 | 93 | 1010.1 |
| 20260903131515 | 44 | 125 | 2.0 | 6.0 | 0.00 | 0.09 | 0.01 | 93 | 1008.8 |
| 20260903131040 | 45 | 111 | 2.0 | 4.0 | 0.00 | 0.09 | 0.01 | 93 | 1010.1 |
| 20260903131007 | 44 | 109 | 2.0 | 4.0 | 0.00 | 0.09 | 0.01 | 93 | 1008.8 |
| 20260903130759 | 45 | 107 | 2.0 | 4.0 | 0.00 | 0.09 | 0.01 | 93 | 1010.1 |
| 20260903130511 | 44 | 114 | 1.0 | 4.0 | 0.00 | 0.09 | 0.01 | 92 | 1008.8 |
| 20260903130027 | 45 | 111 | 2.0 | 6.0 | 0.00 | 0.09 | 0.01 | 93 | 1010.1 |
| 20260903130012 | 45 | 117 | 1.0 | 6.0 | 0.00 | 0.09 | 0.01 | 92 | 1008.7 |
| 20260903125524 | 45 | 118 | 3.0 | 6.0 | 0.00 | 0.09 | 0.01 | 92 | 1010.0 |
| 20260903125507 | 45 | 128 | 2.0 | 6.0 | 0.00 | 0.09 | 0.01 | 92 | 1008.6 |
| 20260903125024 | 45 | 117 | 2.0 | 4.0 | 0.00 | 0.09 | 0.01 | 92 | 1009.9 |
| 20260903125010 | 45 | 117 | 2.0 | 4.0 | 0.00 | 0.09 | 0.01 | 92 | 1008.5 |
| 20260903124528 | 45 | 110 | 1.0 | 6.0 | 0.00 | 0.09 | 0.01 | 92 | 1008.6 |
| 20260903124524 | 45 | 107 | 2.0 | 4.0 | 0.00 | 0.09 | 0.01 | 92 | 1009.9 |
| 20260903124022 | 46 | 115 | 2.0 | 6.0 | 0.00 | 0.09 | 0.01 | 93 | 1009.9 |
| 20260903124003 | 45 | 112 | 2.0 | 6.0 | 0.00 | 0.09 | 0.01 | 92 | 1008.5 |
| 20260903123522 | 46 | 113 | 2.0 | 6.0 | 0.00 | 0.09 | 0.01 | 93 | 1009.9 |
| 20260903123509 | 45 | 113 | 1.0 | 4.0 | 0.00 | 0.09 | 0.01 | 93 | 1008.5 |
| 20260903123038 | 45 | 116 | 2.0 | 7.0 | 0.00 | 0.09 | 0.01 | 93 | 1008.6 |
| 20260903123022 | 46 | 116 | 3.0 | 7.0 | 0.00 | 0.09 | 0.01 | 93 | 1009.9 |
| 20260903122520 | 46 | 111 | 2.0 | 7.0 | 0.00 | 0.09 | 0.01 | 94 | 1009.9 |
| 20260903122504 | 45 | 117 | 3.0 | 7.0 | 0.00 | 0.09 | 0.01 | 93 | 1008.7 |
| 20260903122020 | 46 | 109 | 1.0 | 4.0 | 0.00 | 0.09 | 0.01 | 93 | 1010.0 |
| 20260903122007 | 45 | 113 | 1.0 | 4.0 | 0.00 | 0.09 | 0.01 | 93 | 1008.7 |
| 20260903121520 | 46 | 118 | 1.0 | 4.0 | 0.00 | 0.09 | 0.01 | 93 | 1010.0 |
| 20260903121018 | 46 | 111 | 1.0 | 4.0 | 0.00 | 0.09 | 0.01 | 93 | 1010.0 |
| 20260903121008 | 45 | 115 | 1.0 | 4.0 | 0.00 | 0.09 | 0.01 | 92 | 1008.7 |
| 20260903120515 | 46 | 112 | 1.0 | 6.0 | 0.00 | 0.09 | 0.01 | 93 | 1010.0 |
| 20260903120505 | 46 | 112 | 0.0 | 6.0 | 0.00 | 0.09 | 0.01 | 92 | 1008.7 |
| 20260903120019 | 46 | 111 | 3.0 | 6.0 | 0.00 | 0.09 | 0.01 | 92 | 1008.8 |
| 20260903120016 | 46 | 112 | 1.0 | 6.0 | 0.00 | 0.09 | 0.01 | 93 | 1010.0 |
| 20260903115517 | 46 | 123 | 1.0 | 6.0 | 0.00 | 0.09 | 0.01 | 93 | 1010.0 |
| 20260903115508 | 46 | 123 | 0.0 | 4.0 | 0.00 | 0.09 | 0.01 | 93 | 1008.8 |
| 20260903115014 | 46 | 123 | 2.0 | 6.0 | 0.00 | 0.09 | 0.01 | 93 | 1009.9 |
| 20260903115003 | 46 | 123 | 0.0 | 6.0 | 0.00 | 0.09 | 0.01 | 93 | 1008.7 |
| 20260903114518 | 46 | 131 | 2.0 | 6.0 | 0.00 | 0.09 | 0.01 | 93 | 1008.7 |
| 20260903114515 | 46 | 115 | 2.0 | 6.0 | 0.00 | 0.09 | 0.01 | 93 | 1010.0 |
| 20260903114014 | 46 | 113 | 1.0 | 6.0 | 0.00 | 0.09 | 0.01 | 93 | 1010.0 |
| 20260903113512 | 46 | 118 | 0.0 | 2.0 | 0.00 | 0.09 | 0.01 | 93 | 1009.9 |
| 20260903113016 | 46 | 118 | 0.0 | 6.0 | 0.01 | 0.09 | 0.01 | 93 | 1008.6 |
| 20260903113012 | 47 | 118 | 1.0 | 6.0 | 0.01 | 0.09 | 0.01 | 94 | 1009.9 |
| 20260903112515 | 46 | 118 | 0.0 | 8.0 | 0.01 | 0.09 | 0.01 | 93 | 1008.5 |
| 20260903112512 | 47 | 118 | 3.0 | 7.0 | 0.01 | 0.09 | 0.01 | 94 | 1009.9 |
| 20260903112017 | 46 | 125 | 2.0 | 8.0 | 0.01 | 0.09 | 0.01 | 93 | 1008.4 |
| 20260903112006 | 47 | 125 | 3.0 | 8.0 | 0.01 | 0.09 | 0.01 | 94 | 1009.7 |
| 20260903111531 | 46 | 113 | 2.0 | 8.0 | 0.01 | 0.09 | 0.01 | 94 | 1008.4 |
| 20260903111502 | 47 | 103 | 3.0 | 8.0 | 0.01 | 0.09 | 0.01 | 94 | 1009.7 |
| 20260903111010 | 46 | 92 | 2.0 | 7.0 | 0.01 | 0.09 | 0.01 | 93 | 1008.3 |
| 20260903111002 | 47 | 92 | 3.0 | 7.0 | 0.01 | 0.09 | 0.01 | 94 | 1009.7 |
| 20260903110505 | 46 | 109 | 3.0 | 7.0 | 0.01 | 0.09 | 0.01 | 92 | 1008.3 |
| 20260903110502 | 47 | 109 | 2.0 | 7.0 | 0.01 | 0.09 | 0.01 | 93 | 1009.6 |
| 20260903110015 | 46 | 102 | 1.0 | 6.0 | 0.01 | 0.09 | 0.01 | 93 | 1008.3 |
| 20260903110003 | 47 | 102 | 1.0 | 6.0 | 0.01 | 0.09 | 0.01 | 93 | 1009.7 |
| 20260903105506 | 46 | 98 | 1.0 | 6.0 | 0.01 | 0.09 | 0.01 | 93 | 1008.3 |
| 20260903105500 | 47 | 98 | 2.0 | 6.0 | 0.01 | 0.09 | 0.01 | 94 | 1009.7 |
| 20260903105009 | 46 | 109 | 2.0 | 6.0 | 0.01 | 0.09 | 0.01 | 92 | 1008.3 |
| 20260903105002 | 47 | 109 | 2.0 | 6.0 | 0.01 | 0.09 | 0.01 | 93 | 1009.6 |
| 20260903104528 | 46 | 107 | 1.0 | 6.0 | 0.01 | 0.09 | 0.01 | 92 | 1008.2 |
| 20260903104500 | 47 | 107 | 2.0 | 6.0 | 0.01 | 0.09 | 0.01 | 93 | 1009.6 |
| 20260903104225 | 47 | 104 | 2.0 | 7.0 | 0.01 | 0.09 | 0.01 | 93 | 1009.6 |
| 20260903104011 | 46 | 104 | 1.0 | 7.0 | 0.01 | 0.09 | 0.01 | 92 | 1008.2 |
| 20260903103513 | 46 | 109 | 1.0 | 7.0 | 0.01 | 0.09 | 0.01 | 92 | 1008.3 |
| 20260903103500 | 47 | 109 | 1.0 | 7.0 | 0.01 | 0.09 | 0.01 | 92 | 1009.7 |
| 20260903103219 | 47 | 106 | 1.0 | 4.0 | 0.00 | 0.08 | 0.00 | 93 | 1009.7 |
| 20260903103028 | 46 | 109 | 0.0 | 4.0 | 0.00 | 0.08 | 0.00 | 92 | 1008.4 |
| 20260903102512 | 46 | 126 | 0.0 | 6.0 | 0.00 | 0.08 | 0.00 | 92 | 1008.4 |
| 20260903102456 | 47 | 127 | 2.0 | 6.0 | 0.00 | 0.08 | 0.00 | 93 | 1009.7 |
| 20260903102007 | 46 | 105 | 1.0 | 8.0 | 0.00 | 0.08 | 0.00 | 93 | 1008.3 |
| 20260903101720 | 47 | 99 | 4.0 | 9.0 | 0.00 | 0.08 | 0.00 | 93 | 1009.9 |
| 20260903101525 | 46 | 96 | 3.0 | 9.0 | 0.00 | 0.08 | 0.00 | 93 | 1008.3 |
| 20260903101015 | 46 | 113 | 3.0 | 9.0 | 0.00 | 0.08 | 0.00 | 92 | 1008.3 |
| 20260903100955 | 47 | 113 | 4.0 | 9.0 | 0.00 | 0.08 | 0.00 | 93 | 1009.7 |
| 20260903100716 | 47 | 109 | 3.0 | 8.0 | 0.00 | 0.08 | 0.00 | 93 | 1009.7 |
| 20260903100517 | 46 | 23 | 4.0 | 8.0 | 0.00 | 0.08 | 0.00 | 93 | 1008.2 |
| 20260903100034 | 46 | 107 | 1.0 | 8.0 | 0.00 | 0.08 | 0.00 | 92 | 1008.2 |
| 20260903095956 | 47 | 111 | 3.0 | 8.0 | 0.00 | 0.08 | 0.00 | 93 | 1009.7 |
| 20260903095720 | 47 | 107 | 4.0 | 10.0 | 0.00 | 0.08 | 0.00 | 93 | 1009.7 |
| 20260903095512 | 46 | 107 | 3.0 | 10.0 | 0.00 | 0.08 | 0.00 | 92 | 1008.2 |
| 20260903095219 | 47 | 119 | 4.0 | 10.0 | 0.00 | 0.08 | 0.00 | 93 | 1009.7 |
| 20260903095016 | 46 | 109 | 6.0 | 10.0 | 0.00 | 0.08 | 0.00 | 93 | 1008.3 |
| 20260903094516 | 46 | 88 | 5.0 | 9.0 | 0.00 | 0.08 | 0.00 | 93 | 1008.3 |
| 20260903094456 | 47 | 117 | 4.0 | 9.0 | 0.00 | 0.08 | 0.00 | 93 | 1009.6 |
| 20260903094212 | 47 | 108 | 4.0 | 10.0 | 0.00 | 0.08 | 0.00 | 93 | 1009.6 |
| 20260903094006 | 46 | 108 | 2.0 | 10.0 | 0.00 | 0.08 | 0.00 | 93 | 1008.2 |
| 20260903093508 | 46 | 112 | 4.0 | 10.0 | 0.00 | 0.08 | 0.00 | 92 | 1008.2 |
| 20260903093452 | 47 | 92 | 3.0 | 10.0 | 0.00 | 0.08 | 0.00 | 92 | 1009.7 |
| 20260903093030 | 46 | 115 | 3.0 | 8.0 | 0.00 | 0.08 | 0.00 | 92 | 1008.3 |
| 20260903092952 | 47 | 123 | 2.0 | 8.0 | 0.00 | 0.08 | 0.00 | 93 | 1009.7 |
| 20260903092512 | 46 | 121 | 1.0 | 11.0 | 0.00 | 0.08 | 0.00 | 92 | 1008.3 |
| 20260903092452 | 47 | 121 | 2.0 | 11.0 | 0.00 | 0.08 | 0.00 | 93 | 1009.7 |
| 20260903092011 | 46 | 119 | 0.0 | 11.0 | 0.00 | 0.08 | 0.00 | 92 | 1008.2 |
| 20260903091951 | 47 | 119 | 2.0 | 11.0 | 0.00 | 0.08 | 0.00 | 93 | 1009.6 |
| 20260903091530 | 46 | 118 | 1.0 | 8.0 | 0.00 | 0.08 | 0.00 | 92 | 1008.3 |
| 20260903091452 | 47 | 114 | 1.0 | 8.0 | 0.00 | 0.08 | 0.00 | 93 | 1009.7 |
| 20260903091014 | 46 | 119 | 0.0 | 8.0 | 0.00 | 0.08 | 0.00 | 93 | 1008.4 |
| 20260903090951 | 47 | 119 | 1.0 | 8.0 | 0.00 | 0.08 | 0.00 | 93 | 1009.9 |
| 20260903090510 | 46 | 116 | 0.0 | 8.0 | 0.00 | 0.08 | 0.00 | 93 | 1008.5 |
| 20260903090450 | 47 | 103 | 2.0 | 8.0 | 0.00 | 0.08 | 0.00 | 93 | 1009.9 |
| 20260903090029 | 46 | 37 | 0.0 | 9.0 | 0.00 | 0.08 | 0.00 | 93 | 1008.3 |
| 20260903085950 | 47 | 136 | 2.0 | 9.0 | 0.00 | 0.08 | 0.00 | 93 | 1009.7 |
| 20260903085711 | 47 | 99 | 3.0 | 10.0 | 0.00 | 0.08 | 0.00 | 93 | 1009.7 |
| 20260903085513 | 46 | 82 | 4.0 | 10.0 | 0.00 | 0.08 | 0.00 | 93 | 1008.3 |
| 20260903085008 | 46 | 84 | 3.0 | 10.0 | 0.00 | 0.08 | 0.00 | 93 | 1008.1 |
| 20260903084949 | 47 | 107 | 3.0 | 10.0 | 0.00 | 0.08 | 0.00 | 93 | 1009.5 |
| 20260903084527 | 46 | 117 | 1.0 | 8.0 | 0.00 | 0.08 | 0.00 | 92 | 1008.2 |
| 20260903084448 | 47 | 117 | 2.0 | 8.0 | 0.00 | 0.08 | 0.00 | 93 | 1009.5 |
| 20260903084207 | 47 | 88 | 3.0 | 8.0 | 0.00 | 0.08 | 0.00 | 93 | 1009.6 |
| 20260903084014 | 46 | 65 | 2.0 | 8.0 | 0.00 | 0.08 | 0.00 | 92 | 1008.2 |
| 20260903083502 | 46 | 114 | 3.0 | 12.0 | 0.00 | 0.08 | 0.00 | 92 | 1008.2 |
| 20260903083443 | 47 | 114 | 5.0 | 12.0 | 0.00 | 0.08 | 0.00 | 92 | 1009.6 |
| 20260903083009 | 46 | 105 | 3.0 | 13.0 | 0.00 | 0.08 | 0.00 | 92 | 1008.3 |
| 20260903082944 | 47 | 150 | 6.0 | 13.0 | 0.00 | 0.08 | 0.00 | 93 | 1009.6 |
| 20260903082502 | 46 | 121 | 5.0 | 14.0 | 0.00 | 0.08 | 0.00 | 92 | 1008.0 |
| 20260903082442 | 47 | 36 | 7.0 | 14.0 | 0.00 | 0.08 | 0.00 | 92 | 1009.4 |
| 20260903082006 | 47 | 117 | 8.0 | 15.0 | 0.00 | 0.08 | 0.00 | 92 | 1008.3 |
| 20260903081942 | 47 | 92 | 8.0 | 15.0 | 0.00 | 0.08 | 0.00 | 92 | 1009.6 |
| 20260903081505 | 47 | 50 | 8.0 | 15.0 | 0.00 | 0.08 | 0.00 | 92 | 1008.1 |
| 20260903081442 | 47 | 94 | 6.0 | 15.0 | 0.00 | 0.08 | 0.00 | 92 | 1009.5 |
| 20260903081003 | 47 | 123 | 4.0 | 11.0 | 0.00 | 0.08 | 0.00 | 91 | 1008.2 |
| 20260903080940 | 47 | 96 | 5.0 | 11.0 | 0.00 | 0.08 | 0.00 | 92 | 1009.6 |
| 20260903080505 | 47 | 94 | 4.0 | 13.0 | 0.00 | 0.08 | 0.00 | 91 | 1008.3 |
| 20260903080439 | 47 | 103 | 7.0 | 16.0 | 0.00 | 0.08 | 0.00 | 92 | 1009.9 |
| 20260903080004 | 47 | 143 | 7.0 | 16.0 | 0.00 | 0.08 | 0.00 | 92 | 1008.4 |
| 20260903075940 | 47 | 79 | 6.0 | 16.0 | 0.00 | 0.08 | 0.00 | 92 | 1009.7 |
| 20260903075502 | 47 | 130 | 8.0 | 16.0 | 0.00 | 0.08 | 0.00 | 92 | 1008.2 |
| 20260903075439 | 47 | 112 | 7.0 | 16.0 | 0.00 | 0.08 | 0.00 | 92 | 1009.6 |
| 20260903075203 | 47 | 107 | 8.0 | 16.0 | 0.00 | 0.08 | 0.00 | 92 | 1009.7 |
| 20260903075003 | 47 | 108 | 6.0 | 16.0 | 0.00 | 0.08 | 0.00 | 91 | 1008.4 |
| 20260903074509 | 47 | 98 | 9.0 | 14.0 | 0.00 | 0.08 | 0.00 | 91 | 1008.5 |
| 20260903074439 | 47 | 117 | 7.0 | 14.0 | 0.00 | 0.08 | 0.00 | 91 | 1009.9 |
| 20260903074002 | 47 | 86 | 7.0 | 13.0 | 0.00 | 0.08 | 0.00 | 91 | 1008.6 |
| 20260903073939 | 47 | 103 | 7.0 | 13.0 | 0.00 | 0.08 | 0.00 | 91 | 1010.1 |
| 20260903073659 | 47 | 125 | 6.0 | 11.0 | 0.00 | 0.08 | 0.00 | 91 | 1010.2 |
| 20260903073502 | 47 | 113 | 4.0 | 11.0 | 0.00 | 0.08 | 0.00 | 90 | 1008.7 |
| 20260903073320 | 47 | 63 | 5.0 | 12.0 | 0.00 | 0.08 | 0.00 | 90 | 1008.7 |
| 20260903073257 | 47 | 112 | 6.0 | 12.0 | 0.00 | 0.08 | 0.00 | 91 | 1010.1 |
| 20260903072700 | 47 | 121 | 7.0 | 12.0 | 0.00 | 0.08 | 0.00 | 90 | 1010.1 |
| 20260903072506 | 47 | 112 | 6.0 | 12.0 | 0.00 | 0.08 | 0.00 | 89 | 1008.6 |
| 20260903072004 | 47 | 115 | 6.0 | 12.0 | 0.00 | 0.08 | 0.00 | 90 | 1008.7 |
| 20260903071932 | 47 | 133 | 7.0 | 12.0 | 0.00 | 0.08 | 0.00 | 91 | 1010.2 |
| 20260903071505 | 47 | 114 | 7.0 | 11.0 | 0.00 | 0.08 | 0.00 | 90 | 1008.7 |
| 20260903071425 | 47 | 118 | 6.0 | 11.0 | 0.00 | 0.08 | 0.00 | 91 | 1010.2 |
| 20260903071003 | 47 | 103 | 5.0 | 11.0 | 0.00 | 0.08 | 0.00 | 90 | 1008.6 |
| 20260903070919 | 47 | 90 | 4.0 | 11.0 | 0.00 | 0.08 | 0.00 | 90 | 1010.1 |
| 20260903070504 | 46 | 114 | 2.0 | 13.0 | 0.00 | 0.08 | 0.00 | 90 | 1008.6 |
| 20260903070413 | 47 | 118 | 5.0 | 13.0 | 0.00 | 0.08 | 0.00 | 90 | 1010.0 |
| 20260903070004 | 46 | 90 | 4.0 | 14.0 | 0.00 | 0.08 | 0.00 | 89 | 1008.7 |
| 20260903065908 | 47 | 157 | 7.0 | 14.0 | 0.00 | 0.08 | 0.08 | 89 | 1010.1 |
| 20260903065504 | 47 | 113 | 5.0 | 14.0 | 0.00 | 0.08 | 0.08 | 89 | 1008.5 |
| 20260903065402 | 47 | 110 | 8.0 | 14.0 | 0.00 | 0.08 | 0.08 | 90 | 1010.1 |
| 20260903065119 | 47 | 126 | 6.0 | 14.0 | 0.00 | 0.08 | 0.08 | 89 | 1010.1 |
| 20260903065004 | 47 | 94 | 7.0 | 14.0 | 0.00 | 0.08 | 0.08 | 89 | 1008.5 |
| 20260903064503 | 47 | 121 | 8.0 | 14.0 | 0.00 | 0.08 | 0.08 | 89 | 1008.7 |
| 20260903064350 | 47 | 112 | 4.0 | 14.0 | 0.00 | 0.08 | 0.08 | 89 | 1010.1 |
| 20260903064003 | 47 | 111 | 2.0 | 10.0 | 0.00 | 0.08 | 0.08 | 89 | 1008.7 |
| 20260903063845 | 47 | 107 | 4.0 | 10.0 | 0.00 | 0.08 | 0.08 | 90 | 1010.2 |
| 20260903063504 | 47 | 70 | 5.0 | 10.0 | 0.00 | 0.08 | 0.08 | 89 | 1008.7 |
| 20260903063338 | 47 | 86 | 4.0 | 10.0 | 0.00 | 0.08 | 0.08 | 89 | 1010.1 |
| 20260903063009 | 47 | 113 | 3.0 | 11.0 | 0.00 | 0.08 | 0.08 | 89 | 1008.7 |
| 20260903062832 | 47 | 129 | 5.0 | 11.0 | 0.00 | 0.08 | 0.08 | 89 | 1010.1 |
| 20260903062547 | 47 | 115 | 5.0 | 11.0 | 0.00 | 0.08 | 0.08 | 89 | 1010.1 |
| 20260903062504 | 47 | 111 | 4.0 | 11.0 | 0.00 | 0.08 | 0.08 | 89 | 1008.7 |
| 20260903062003 | 47 | 109 | 5.0 | 9.0 | 0.00 | 0.08 | 0.08 | 88 | 1008.7 |
| 20260903061825 | 47 | 110 | 5.0 | 15.0 | 0.00 | 0.08 | 0.08 | 88 | 1010.1 |
| 20260903061518 | 47 | 120 | 3.0 | 15.0 | 0.00 | 0.08 | 0.08 | 88 | 1008.8 |
| 20260903061324 | 47 | 103 | 7.0 | 15.0 | 0.00 | 0.08 | 0.08 | 88 | 1010.1 |
| 20260903061006 | 47 | 152 | 7.0 | 17.0 | 0.00 | 0.08 | 0.08 | 88 | 1008.7 |
| 20260903060825 | 48 | 112 | 10.0 | 17.0 | 0.00 | 0.08 | 0.08 | 88 | 1010.1 |
| 20260903060503 | 47 | 105 | 7.0 | 19.0 | 0.00 | 0.08 | 0.08 | 88 | 1008.7 |
| 20260903060324 | 48 | 116 | 11.0 | 19.0 | 0.00 | 0.08 | 0.08 | 90 | 1010.0 |
| 20260903060048 | 48 | 108 | 11.0 | 19.0 | 0.00 | 0.08 | 0.08 | 90 | 1009.9 |
| 20260903060002 | 47 | 85 | 11.0 | 19.0 | 0.00 | 0.08 | 0.08 | 90 | 1008.5 |
| 20260903055503 | 47 | 109 | 9.0 | 18.0 | 0.00 | 0.08 | 0.08 | 89 | 1008.6 |
| 20260903055324 | 48 | 111 | 12.0 | 18.0 | 0.00 | 0.08 | 0.08 | 90 | 1010.0 |
| 20260903055043 | 48 | 75 | 11.0 | 18.0 | 0.00 | 0.08 | 0.08 | 90 | 1010.1 |
| 20260903055002 | 47 | 111 | 10.0 | 18.0 | 0.00 | 0.08 | 0.08 | 89 | 1008.7 |
| 20260903054504 | 47 | 109 | 11.0 | 18.0 | 0.00 | 0.08 | 0.08 | 90 | 1008.6 |
| 20260903054324 | 47 | 103 | 10.0 | 18.0 | 0.00 | 0.08 | 0.08 | 90 | 1010.1 |
| 20260903054007 | 47 | 95 | 8.0 | 16.0 | 0.00 | 0.08 | 0.08 | 89 | 1008.7 |
| 20260903053824 | 47 | 116 | 9.0 | 16.0 | 0.00 | 0.08 | 0.08 | 90 | 1010.1 |
| 20260903053503 | 47 | 86 | 9.0 | 17.0 | 0.00 | 0.08 | 0.08 | 90 | 1008.5 |
| 20260903053324 | 47 | 123 | 9.0 | 17.0 | 0.00 | 0.08 | 0.08 | 90 | 1010.0 |
| 20260903053006 | 47 | 117 | 8.0 | 17.0 | 0.00 | 0.08 | 0.08 | 89 | 1008.7 |
| 20260903052824 | 47 | 106 | 9.0 | 17.0 | 0.00 | 0.08 | 0.08 | 90 | 1010.2 |
| 20260903052505 | 47 | 130 | 10.0 | 23.0 | 0.00 | 0.08 | 0.08 | 90 | 1008.7 |
| 20260903052323 | 47 | 90 | 8.0 | 23.0 | 0.00 | 0.08 | 0.08 | 89 | 1010.1 |
| 20260903052053 | 47 | 114 | 7.0 | 23.0 | 0.00 | 0.08 | 0.08 | 88 | 1010.2 |
| 20260903052005 | 47 | 78 | 6.0 | 23.0 | 0.00 | 0.08 | 0.08 | 88 | 1008.7 |
| 20260903051544 | 47 | 125 | 7.0 | 13.0 | 0.00 | 0.08 | 0.08 | 89 | 1010.0 |
| 20260903051505 | 47 | 91 | 4.0 | 13.0 | 0.00 | 0.08 | 0.08 | 88 | 1008.5 |
| 20260903051040 | 47 | 112 | 7.0 | 13.0 | 0.00 | 0.08 | 0.08 | 90 | 1009.7 |
| 20260903051003 | 47 | 244 | 6.0 | 13.0 | 0.00 | 0.08 | 0.08 | 88 | 1008.4 |
| 20260903050506 | 47 | 90 | 7.0 | 13.0 | 0.00 | 0.08 | 0.08 | 89 | 1008.5 |
| 20260903050324 | 47 | 113 | 5.0 | 13.0 | 0.00 | 0.08 | 0.08 | 89 | 1009.7 |
| 20260903050020 | 47 | 101 | 6.0 | 10.0 | 0.00 | 0.08 | 0.08 | 88 | 1008.5 |
| 20260903045824 | 47 | 94 | 2.0 | 8.0 | 0.00 | 0.08 | 0.08 | 87 | 1009.7 |
| 20260903045536 | 47 | 138 | 2.0 | 6.0 | 0.00 | 0.08 | 0.08 | 87 | 1009.7 |
| 20260903045504 | 47 | 101 | 3.0 | 8.0 | 0.00 | 0.08 | 0.08 | 88 | 1008.5 |
| 20260903045005 | 47 | 119 | 1.0 | 11.0 | 0.00 | 0.08 | 0.08 | 87 | 1008.5 |
| 20260903044813 | 47 | 185 | 3.0 | 11.0 | 0.00 | 0.08 | 0.08 | 87 | 1009.7 |
| 20260903044519 | 47 | 112 | 2.0 | 11.0 | 0.00 | 0.08 | 0.08 | 87 | 1008.4 |
| 20260903044306 | 47 | 184 | 4.0 | 11.0 | 0.00 | 0.08 | 0.08 | 88 | 1009.7 |
| 20260903044002 | 47 | 54 | 3.0 | 11.0 | 0.00 | 0.08 | 0.08 | 87 | 1008.3 |
| 20260903043800 | 47 | 190 | 6.0 | 13.0 | 0.00 | 0.08 | 0.08 | 88 | 1009.7 |
| 20260903043503 | 47 | 80 | 5.0 | 14.0 | 0.00 | 0.08 | 0.08 | 88 | 1008.2 |
| 20260903043254 | 48 | 111 | 8.0 | 18.0 | 0.00 | 0.08 | 0.08 | 89 | 1009.6 |
| 20260903043008 | 48 | 88 | 9.0 | 18.0 | 0.00 | 0.08 | 0.08 | 90 | 1009.5 |
| 20260903043006 | 47 | 117 | 7.0 | 18.0 | 0.00 | 0.08 | 0.08 | 89 | 1008.2 |
| 20260903042509 | 48 | 92 | 9.0 | 16.0 | 0.00 | 0.08 | 0.08 | 88 | 1009.5 |
| 20260903042504 | 47 | 104 | 10.0 | 18.0 | 0.00 | 0.08 | 0.08 | 89 | 1008.1 |
| 20260903042004 | 47 | 96 | 8.0 | 16.0 | 0.00 | 0.08 | 0.08 | 89 | 1008.2 |
| 20260903041737 | 48 | 114 | 9.0 | 17.0 | 0.00 | 0.08 | 0.08 | 89 | 1009.6 |
| 20260903041511 | 47 | 105 | 8.0 | 17.0 | 0.00 | 0.08 | 0.08 | 89 | 1008.2 |
| 20260903041234 | 48 | 55 | 10.0 | 17.0 | 0.00 | 0.08 | 0.08 | 89 | 1009.6 |
| 20260903041005 | 47 | 96 | 10.0 | 18.0 | 0.01 | 0.08 | 0.08 | 88 | 1008.1 |
| 20260903040734 | 48 | 111 | 11.0 | 18.0 | 0.01 | 0.08 | 0.08 | 90 | 1009.3 |
| 20260903040506 | 48 | 98 | 9.0 | 19.0 | 0.01 | 0.08 | 0.08 | 88 | 1008.1 |
| 20260903040233 | 48 | 83 | 12.0 | 19.0 | 0.01 | 0.08 | 0.08 | 90 | 1009.6 |
| 20260903040013 | 48 | 105 | 12.0 | 19.0 | 0.01 | 0.08 | 0.08 | 89 | 1008.2 |
| 20260903035734 | 48 | 113 | 11.0 | 19.0 | 0.01 | 0.08 | 0.08 | 89 | 1009.5 |
| 20260903035509 | 48 | 113 | 10.0 | 19.0 | 0.01 | 0.08 | 0.08 | 89 | 1008.1 |
| 20260903035234 | 48 | 104 | 9.0 | 18.0 | 0.01 | 0.08 | 0.08 | 89 | 1009.5 |
| 20260903035007 | 48 | 82 | 10.0 | 16.0 | 0.02 | 0.08 | 0.08 | 89 | 1008.1 |
| 20260903034734 | 48 | 136 | 8.0 | 16.0 | 0.02 | 0.08 | 0.08 | 89 | 1009.4 |
| 20260903034504 | 48 | 103 | 6.0 | 18.0 | 0.02 | 0.08 | 0.08 | 88 | 1008.1 |
| 20260903034234 | 48 | 117 | 8.0 | 18.0 | 0.03 | 0.08 | 0.08 | 88 | 1009.6 |
| 20260903034004 | 48 | 103 | 10.0 | 18.0 | 0.03 | 0.08 | 0.08 | 87 | 1008.2 |
| 20260903033508 | 48 | 46 | 8.0 | 19.0 | 0.04 | 0.08 | 0.08 | 88 | 1008.0 |
| 20260903033233 | 48 | 130 | 10.0 | 21.0 | 0.04 | 0.08 | 0.08 | 89 | 1009.9 |
| 20260903033030 | 48 | 103 | 10.0 | 21.0 | 0.05 | 0.08 | 0.08 | 88 | 1008.1 |
| 20260903032730 | 49 | 114 | 9.0 | 21.0 | 0.05 | 0.08 | 0.08 | 89 | 1009.6 |
| 20260903032506 | 48 | 59 | 11.0 | 21.0 | 0.05 | 0.08 | 0.08 | 88 | 1007.9 |
| 20260903032230 | 49 | 127 | 8.0 | 17.0 | 0.05 | 0.08 | 0.08 | 89 | 1009.5 |
| 20260903032004 | 48 | 107 | 8.0 | 16.0 | 0.05 | 0.08 | 0.08 | 89 | 1008.0 |
| 20260903031952 | 49 | 101 | 7.0 | 16.0 | 0.06 | 0.08 | 0.08 | 90 | 1009.5 |
| 20260903031505 | 48 | 82 | 9.0 | 15.0 | 0.06 | 0.08 | 0.08 | 89 | 1008.0 |
| 20260903031446 | 49 | 107 | 6.0 | 14.0 | 0.06 | 0.08 | 0.08 | 89 | 1009.6 |
| 20260903031008 | 48 | 118 | 4.0 | 14.0 | 0.05 | 0.07 | 0.07 | 89 | 1008.1 |
| 20260903030952 | 49 | 101 | 5.0 | 14.0 | 0.06 | 0.07 | 0.07 | 90 | 1009.7 |
| 20260903030508 | 48 | 78 | 5.0 | 13.0 | 0.06 | 0.07 | 0.07 | 89 | 1008.0 |
| 20260903030449 | 48 | 89 | 4.0 | 13.0 | 0.06 | 0.07 | 0.07 | 90 | 1009.6 |
| 20260903030014 | 48 | 115 | 6.0 | 13.0 | 0.06 | 0.07 | 0.07 | 90 | 1008.0 |
| 20260903025731 | 49 | 70 | 2.0 | 9.0 | 0.07 | 0.07 | 0.07 | 91 | 1009.7 |
| 20260903025505 | 48 | 91 | 4.0 | 10.0 | 0.07 | 0.07 | 0.07 | 90 | 1008.1 |
| 20260903025230 | 49 | 90 | 3.0 | 10.0 | 0.07 | 0.07 | 0.07 | 91 | 1009.9 |
| 20260903025003 | 48 | 40 | 0.0 | 14.0 | 0.06 | 0.06 | 0.06 | 90 | 1008.2 |
| 20260903024730 | 49 | 119 | 5.0 | 14.0 | 0.06 | 0.06 | 0.06 | 90 | 1009.7 |
| 20260903024513 | 48 | 69 | 5.0 | 14.0 | 0.06 | 0.06 | 0.06 | 89 | 1008.3 |
| 20260903024226 | 49 | 112 | 5.0 | 14.0 | 0.05 | 0.05 | 0.05 | 89 | 1009.9 |
| 20260903024007 | 48 | 117 | 7.0 | 14.0 | 0.05 | 0.05 | 0.05 | 88 | 1008.4 |
| 20260903023726 | 49 | 91 | 4.0 | 13.0 | 0.04 | 0.04 | 0.04 | 89 | 1010.0 |
| 20260903023511 | 48 | 111 | 5.0 | 11.0 | 0.04 | 0.04 | 0.04 | 88 | 1008.5 |
| 20260903023226 | 49 | 120 | 3.0 | 8.0 | 0.04 | 0.04 | 0.04 | 88 | 1010.1 |
| 20260903023009 | 49 | 105 | 1.0 | 11.0 | 0.03 | 0.03 | 0.03 | 87 | 1008.7 |
| 20260903022725 | 49 | 109 | 3.0 | 11.0 | 0.03 | 0.03 | 0.03 | 88 | 1010.1 |
| 20260903022508 | 49 | 132 | 3.0 | 11.0 | 0.03 | 0.03 | 0.03 | 87 | 1008.5 |
| 20260903022226 | 49 | 82 | 4.0 | 11.0 | 0.03 | 0.03 | 0.03 | 88 | 1010.0 |
| 20260903022015 | 49 | 107 | 3.0 | 10.0 | 0.03 | 0.03 | 0.03 | 87 | 1008.6 |
| 20260903021726 | 49 | 105 | 3.0 | 10.0 | 0.02 | 0.02 | 0.02 | 88 | 1010.0 |
| 20260903021505 | 49 | 108 | 3.0 | 10.0 | 0.02 | 0.02 | 0.02 | 86 | 1008.7 |
| 20260903021226 | 50 | 130 | 2.0 | 9.0 | 0.02 | 0.02 | 0.02 | 87 | 1010.1 |
| 20260903021007 | 49 | 100 | 2.0 | 13.0 | 0.02 | 0.02 | 0.02 | 87 | 1008.8 |
| 20260903020949 | 50 | 115 | 4.0 | 13.0 | 0.01 | 0.01 | 0.01 | 85 | 1010.2 |
| 20260903020512 | 49 | 106 | 2.0 | 13.0 | 0.01 | 0.01 | 0.01 | 85 | 1008.9 |
| 20260903020446 | 50 | 112 | 4.0 | 13.0 | 0.01 | 0.01 | 0.01 | 84 | 1010.2 |
| 20260903020019 | 50 | 131 | 3.0 | 13.0 | 0.01 | 0.01 | 0.01 | 84 | 1008.8 |
| 20260903015725 | 50 | 157 | 4.0 | 13.0 | 0.00 | 0.00 | 0.00 | 83 | 1010.2 |
| 20260903015504 | 50 | 98 | 3.0 | 13.0 | 0.00 | 0.00 | 0.00 | 83 | 1008.9 |
| 20260903015219 | 51 | 103 | 3.0 | 13.0 | 0.00 | 0.00 | 0.00 | 82 | 1010.2 |
| 20260903015003 | 51 | 109 | 2.0 | 13.0 | 0.00 | 0.00 | 0.00 | 80 | 1009.0 |
| 20260903014713 | 51 | 125 | 3.0 | 13.0 | 0.00 | 0.00 | 0.00 | 79 | 1010.2 |
| 20260903014513 | 51 | 325 | 2.0 | 13.0 | 0.00 | 0.00 | 0.00 | 79 | 1008.8 |
| 20260903014207 | 52 | 120 | 2.0 | 13.0 | 0.00 | 0.00 | 0.00 | 78 | 1010.2 |
| 20260903014007 | 51 | 106 | 2.0 | 9.0 | 0.00 | 0.00 | 0.00 | 77 | 1008.9 |
| 20260903013701 | 52 | 238 | 3.0 | 9.0 | 0.00 | 0.00 | 0.00 | 76 | 1010.2 |
| 20260903013511 | 52 | 121 | 3.0 | 9.0 | 0.00 | 0.00 | 0.00 | 74 | 1008.9 |
| 20260903013155 | 53 | 243 | 3.0 | 9.0 | 0.00 | 0.00 | 0.00 | 74 | 1010.2 |
| 20260903013020 | 53 | 190 | 2.0 | 9.0 | 0.00 | 0.00 | 0.00 | 71 | 1008.8 |
| 20260903012909 | 55 | 221 | 3.0 | 15.0 | 0.00 | 0.00 | 0.00 | 69 | 1010.1 |
| 20260903012510 | 55 | 213 | 2.0 | 15.0 | 0.00 | 0.00 | 0.00 | 68 | 1008.8 |
| 20260903012007 | 56 | 79 | 2.0 | 15.0 | 0.00 | 0.00 | 0.00 | 61 | 1008.5 |
| 20260903011635 | 56 | 155 | 5.0 | 17.0 | 0.00 | 0.00 | 0.00 | 59 | 1009.7 |
| 20260903011516 | 56 | 136 | 4.0 | 17.0 | 0.00 | 0.00 | 0.00 | 59 | 1008.3 |
| 20260903011134 | 57 | 131 | 6.0 | 20.0 | 0.00 | 0.00 | 0.00 | 59 | 1009.5 |
| 20260903011013 | 56 | 116 | 5.0 | 20.0 | 0.00 | 0.00 | 0.00 | 58 | 1008.2 |
| 20260903010633 | 57 | 103 | 6.0 | 20.0 | 0.00 | 0.00 | 0.00 | 57 | 1009.5 |
| 20260903010517 | 56 | 80 | 5.0 | 20.0 | 0.00 | 0.00 | 0.00 | 57 | 1008.2 |
| 20260903010011 | 57 | 112 | 6.0 | 20.0 | 0.00 | 0.00 | 0.00 | 55 | 1008.2 |
| 20260903005858 | 57 | 107 | 5.0 | 17.0 | 0.00 | 0.00 | 0.00 | 56 | 1009.5 |
| 20260903005513 | 57 | 138 | 5.0 | 17.0 | 0.00 | 0.00 | 0.00 | 56 | 1008.2 |